Regional Weather Roundup
Issued by NWS

Home | Current Version | Previous Version | Graphics & Text | Print | Product List | Glossary On
Versions: 1 2 3 4 5 6 7 8 9 10 11 12 13 14 15 16 17 18 19 20 21 22 23 24 25 26 27 28 29 30 31 32 33 34 35 36 37 38 39 40 41 42 43 44 45 46 47 48 49 50
000
ASUS43 KLOT 011312
RWRIL

ILLINOIS REGIONAL WEATHER ROUNDUP
NATIONAL WEATHER SERVICE CHICAGO/ROMEOVILLE IL
800 AM CDT TUE SEP 01 2015

NOTE: "FAIR" INDICATES FEW OR NO CLOUDS BELOW 12,000 FEET WITH NO
SIGNIFICANT WEATHER AND/OR OBSTRUCTIONS TO VISIBILITY.

* THESE STATIONS ARE NOT UNDER NWS QUALITY CONTROL. THEY ALSO MAY NOT
  REPORT WEATHER SUCH AS PRECIPITATION OR FOG.

ILZ001-002-007-009-015-016-024-011400-
NORTHWEST ILLINOIS

CITY           SKY/WX    TMP DP  RH WIND       PRES   REMARKS
MOLINE         MOSUNNY   75  70  84 CALM      30.04R HAZE
STERLING*      MOSUNNY   73  72  94 SW3       30.03R
SAVANNA*       SUNNY     73  70  93 S5        30.03S FOG
$$

ILZ003-004-008-010-011-017-018-011400-
NORTH CENTRAL ILLINOIS

CITY           SKY/WX    TMP DP  RH WIND       PRES   REMARKS
ROCKFORD       MOSUNNY   72  69  90 S6        30.06R FOG
FREEPORT*      SUNNY     71  70  95 SW8       30.06R FOG
ROCHELLE*      PTSUNNY   70  70  99 CALM      30.06S FOG
DE KALB*       FOG       70  69  98 S6        30.07S VSB<1/4
PERU*          SUNNY     75  73  91 W6        30.06S
$$

ILZ005-006-012>014-019>023-011400-
NORTHEAST ILLINOIS

CITY           SKY/WX    TMP DP  RH WIND       PRES   REMARKS
CHICAGO-OHARE  MOSUNNY   73  71  93 S3        30.05S
CHICAGO-MIDWAY MOSUNNY   75  69  81 S7        30.06R
AURORA         SUNNY     72  70  93 S3        30.07R FOG
LANSING*       SUNNY     73  70  92 SW8       30.08S
JOLIET*        MOSUNNY   74  72  93 CALM      30.07S FOG
WAUKEGAN       MOSUNNY   73  70  90 SW7       30.04S FOG
DUPAGE AIRPORT MOSUNNY   73  70  90 S6        30.06R FOG
KANKAKEE*      TSTM      71  69  93 CALM      30.09R
WHEELING       SUNNY     74  71  91 S5        30.06S FOG
MORRIS*        SUNNY     71  70  96 S5        30.06S FOG
ROMEOVILLE*    SUNNY     72  70  95 S6        30.07S FOG
NORTHERLY ISL    N/A     74  68  81 S6          N/A
$$

LMZ740>746-011400-
SOUTHERN LAKE MICHIGAN

STATION/POSITION SKY/WX   TEMP    WIND        PRES    VSBY  WAVE
                          AIR SEA DIR/SP/G                  HT/PER
                          (F)     (DEG/KT/KT) (MB)    (MI)  (FT/S)
SOUTHERN BUOY              71 69  190/  8/ 10 1017.1R         0
WILMETTE HARBOR            65 61  330/  4/  4   N/A           0
HARRISON CRIB              72     170/ 14/ 15   N/A
BURNHAM HARBOR             75     200/  5/  8   N/A
CALUMET HARBOR             72     200/  3/  4   N/A
BURNS HARBOR               73     180/  7/ 12 1018.6R
MICHIGAN CITY              72     140/  9/ 10   N/A
MICHIGAN CITY 6N           72 72  180/  8/ 10   N/A           1
ST. JOSEPH                 72 71  220/  8/  8   N/A           1
$$

ILZ025>027-034>036-040-047-049-050-058-095>099-011400-
WEST-CENTRAL ILLINOIS

CITY           SKY/WX    TMP DP  RH WIND       PRES   REMARKS
QUINCY         SUNNY     73  70  90 S8        30.07R
GALESBURG*     SUNNY     72  71  95 S6        30.07R FOG
MACOMB*        SUNNY     74  71  88 SW5       30.08S
JACKSONVILLE*  SUNNY     76  72  85 SW8       30.08S
PITTSFIELD*    MOSUNNY   74  70  86 SW6       30.09S
$$

ILZ028>032-037-038-041>044-048-051>054-059>061-011400-
CENTRAL ILLINOIS

CITY           SKY/WX    TMP DP  RH WIND       PRES   REMARKS
PONTIAC        SUNNY     72  72  99 CALM      30.08F FOG
BLOOMINGTON    MOSUNNY   73  73 100 SW8       30.09F
DECATUR        MOSUNNY   73  68  84 SW9       30.10R
PEORIA         SUNNY     75  71  87 S6        30.07R FOG
LACON*         SUNNY     74  71  90 SW5       30.05S
LINCOLN*       SUNNY     73  70  92 CALM      30.08R FOG
SPRINGFIELD    SUNNY     75  71  87 SW7       30.08S
TAYLORVILLE    SUNNY     72  70  94 S6        30.10S
$$

ILZ033-039-045-046-055>057-062-063-011400-
EAST-CENTRAL ILLINOIS

CITY           SKY/WX    TMP DP  RH WIND       PRES   REMARKS
CHAMPAIGN      CLOUDY    72  70  93 S6        30.10F FOG
RANTOUL*       CLOUDY    74  72  94 S5        30.10S FOG
MATTOON        CLOUDY    71  67  87 S9        30.12R
PARIS*         MOSUNNY   73  69  86 SW12      30.12F THUNDER
$$

ILZ079-100>102-011400-
SOUTHWEST ILLINOIS

CITY           SKY/WX    TMP DP  RH WIND       PRES   REMARKS
ALTON          MOSUNNY   72  70  94 S5        30.10S
BELLEVILLE     MOSUNNY   73  73  99 VRB1      30.09S
CAHOKIA*       SUNNY     74  70  87 S3        30.10S
SPARTA*        SUNNY     73  68  83 S7        30.12S
$$

ILZ064>066-069>071-074>076-080>082-084>086-088>090-092>094-011400-
SOUTH-CENTRAL ILLINOIS

CITY           SKY/WX    TMP DP  RH WIND       PRES   REMARKS
CARBONDALE     SUNNY     71  69  93 CALM      30.12S
CAIRO*         SUNNY     69  69 100 CALM      30.12S
EFFINGHAM*     PTSUNNY   71  67  88 E3        30.13R
MARION         SUNNY     73  70  88 SE6       30.13S
MT. VERNON     SUNNY     72  66  83 CALM      30.13S
SALEM*         MOSUNNY   74  69  86 S3        30.12R
METROPOLIS*    SUNNY     70  70 100 CALM      30.13S FOG
$$

ILZ067-068-072-073-078-083-087-091-011400-
SOUTHEAST ILLINOIS

CITY           SKY/WX    TMP DP  RH WIND       PRES   REMARKS
LAWRENCEVILLE  PTSUNNY   71  69  93 SE6       30.14R
FLORA*         MOSUNNY   70  67  91 S3        30.12S
FAIRFIELD*     SUNNY     72  69  92 CALM      30.12S
HARRISBURG*    SUNNY     70  68  95 CALM      30.13S FOG
ROBINSON*      CLOUDY    70  67  90 N6        30.16R THUNDER
CARMI*         SUNNY     71  69  95 S3        30.13R
$$

ABBREVIATIONS USED IN REMARKS
   TC - TEMPERATURE IN CELSIUS
  WCI - WIND CHILL INDEX
   HX - HEAT INDEX
  VSB - VISIBILITY
$$



USA.gov is the U.S. government's official web portal to all federal, state and local government web resources and services.